Location: Darmstadt
(49.8706°N, 8.6494°E)
Time: 07:01:25
(UTC+01:00)

Cosmos 1553 Rocket - Pass Details

Date: 31 October 2020
Orbit: 940 x 1009 km, 82.9° (Epoch: 03 December)

Event Time Altitude Azimuth Distance (km) Brightness Sun altitude
Rises 17:47:21 0° 167° (SSE) 3,705 7.0 -7.6°
Reaches altitude 10° 17:49:58 10° 162° (SSE) 2,752 6.3 -8.0°
Maximum altitude 17:55:57 47° 90° (E) 1,282 4.3 -8.9°
Drops below altitude 10° 18:01:52 10° 19° (NNE) 2,725 6.1 -9.8°
Sets 18:04:27 0° 14° (NNE) 3,666 6.8 -10.2°
